Climatologie pour Saint-Brevin les Pins
Jour • Résumé pour mars 29, 2017 Système :  Métrique    Anglais   Mixte
« - 1 jour
+ 1 jour »
Jour Semaine Mois Année Personnalisé
  Maximum : Minimum : Moyenne :
Température sous abri : 19.6 °C 8.9 °C 14.3 °C
Point de rosée : 12.2 °C 7.1 °C 8.9 °C
Humidité : 92 % 49 % 71 %
Vitesse du vent : 22.5 km/h 0.0 km/h 6.6 km/h
Rafale : 29.0 km/h - -
Direction :- - South
Pression : 1026.3 hPa 1023.2 hPa -
Précipitations : 0.0 mm    
Historical Graphs
 
 
Tableau de données pour mars 29, 2017
Heure Tempé Pt rosée Pression Vent Vitesse Rafale Humidité Taux pluie (/hr) Soleil
00:00 11.2 °C 9.1 °C 1026.3 hPa SSW 11.3 km/h 12.9 km/h 87 % 0.0 mm 0 W/m2
00:10 11.2 °C 9.1 °C 1026.0 hPa SSW 9.7 km/h 14.5 km/h 87 % 0.0 mm 0 W/m2
00:15 11.2 °C 9.1 °C 1026.3 hPa SSW 6.4 km/h 14.5 km/h 87 % 0.0 mm 0 W/m2
00:20 11.3 °C 9.2 °C 1026.3 hPa SSW 4.8 km/h 12.9 km/h 87 % 0.0 mm 0 W/m2
00:25 11.2 °C 9.1 °C 1026.3 hPa South 4.8 km/h 12.9 km/h 87 % 0.0 mm 0 W/m2
00:30 11.2 °C 9.1 °C 1026.3 hPa South 6.4 km/h 11.3 km/h 87 % 0.0 mm 0 W/m2
00:35 11.2 °C 9.3 °C 1026.3 hPa South 3.2 km/h 12.9 km/h 88 % 0.0 mm 0 W/m2
00:40 11.2 °C 9.3 °C 1026.3 hPa SSW 3.2 km/h 12.9 km/h 88 % 0.0 mm 0 W/m2
00:45 11.2 °C 9.3 °C 1026.3 hPa South 8.0 km/h 16.1 km/h 88 % 0.0 mm 0 W/m2
00:50 11.2 °C 9.3 °C 1026.3 hPa South 9.7 km/h 16.1 km/h 88 % 0.0 mm 0 W/m2
00:55 11.3 °C 9.4 °C 1026.0 hPa South 8.0 km/h 11.3 km/h 88 % 0.0 mm 0 W/m2
01:00 11.4 °C 9.4 °C 1026.0 hPa SSE 9.7 km/h 16.1 km/h 87 % 0.0 mm 0 W/m2
01:05 11.5 °C 9.4 °C 1026.0 hPa South 6.4 km/h 16.1 km/h 87 % 0.0 mm 0 W/m2
01:10 11.6 °C 9.3 °C 1026.0 hPa SSE 6.4 km/h 12.9 km/h 86 % 0.0 mm 0 W/m2
01:15 11.5 °C 9.2 °C 1026.0 hPa South 4.8 km/h 12.9 km/h 86 % 0.0 mm 0 W/m2
01:20 11.4 °C 9.1 °C 1026.0 hPa South 4.8 km/h 14.5 km/h 86 % 0.0 mm 0 W/m2
01:25 11.3 °C 9.1 °C 1026.0 hPa South 1.6 km/h 14.5 km/h 86 % 0.0 mm 0 W/m2
01:30 11.4 °C 9.1 °C 1026.0 hPa South 8.0 km/h 11.3 km/h 86 % 0.0 mm 0 W/m2
01:35 11.5 °C 9.2 °C 1026.0 hPa SSE 6.4 km/h 11.3 km/h 86 % 0.0 mm 0 W/m2
01:40 11.6 °C 9.2 °C 1026.0 hPa South 6.4 km/h 11.3 km/h 85 % 0.0 mm 0 W/m2
01:45 11.7 °C 9.1 °C 1026.0 hPa SSE 3.2 km/h 14.5 km/h 84 % 0.0 mm 0 W/m2
01:50 11.7 °C 9.1 °C 1026.0 hPa South 6.4 km/h 14.5 km/h 84 % 0.0 mm 0 W/m2
01:55 11.8 °C 9.0 °C 1025.6 hPa South 8.0 km/h 16.1 km/h 83 % 0.0 mm 0 W/m2
02:00 11.9 °C 9.0 °C 1025.6 hPa SSE 9.7 km/h 16.1 km/h 82 % 0.0 mm 0 W/m2
02:05 12.1 °C 8.9 °C 1025.6 hPa South 11.3 km/h 14.5 km/h 81 % 0.0 mm 0 W/m2
02:10 12.2 °C 8.9 °C 1025.6 hPa South 9.7 km/h 16.1 km/h 80 % 0.0 mm 0 W/m2
02:15 12.4 °C 8.8 °C 1025.6 hPa South 8.0 km/h 17.7 km/h 79 % 0.0 mm 0 W/m2
02:20 12.4 °C 8.7 °C 1025.6 hPa SSW 8.0 km/h 19.3 km/h 78 % 0.0 mm 0 W/m2
02:30 12.4 °C 8.9 °C 1025.3 hPa South 6.4 km/h 19.3 km/h 79 % 0.0 mm 0 W/m2
02:35 12.3 °C 8.8 °C 1025.3 hPa SE 3.2 km/h 19.3 km/h 79 % 0.0 mm 0 W/m2
02:40 12.2 °C 8.9 °C 1025.3 hPa SSE 6.4 km/h 16.1 km/h 80 % 0.0 mm 0 W/m2
02:45 12.2 °C 8.8 °C 1025.3 hPa SSE 8.0 km/h 14.5 km/h 80 % 0.0 mm 0 W/m2
02:50 12.1 °C 8.9 °C 1025.3 hPa SSE 4.8 km/h 14.5 km/h 81 % 0.0 mm 0 W/m2
02:55 11.9 °C 8.9 °C 1025.3 hPa SSE 4.8 km/h 12.9 km/h 82 % 0.0 mm 0 W/m2
03:00 11.8 °C 8.8 °C 1025.3 hPa SSE 9.7 km/h 11.3 km/h 82 % 0.0 mm 0 W/m2
03:05 11.7 °C 8.7 °C 1025.3 hPa SSE 4.8 km/h 16.1 km/h 82 % 0.0 mm 0 W/m2
03:10 11.6 °C 8.8 °C 1025.3 hPa SSE 6.4 km/h 16.1 km/h 83 % 0.0 mm 0 W/m2
03:15 11.5 °C 8.9 °C 1025.3 hPa SE 4.8 km/h 9.7 km/h 84 % 0.0 mm 0 W/m2
03:20 11.4 °C 8.8 °C 1025.3 hPa SSE 6.4 km/h 9.7 km/h 84 % 0.0 mm 0 W/m2
03:25 11.3 °C 8.7 °C 1025.3 hPa SE 3.2 km/h 9.7 km/h 84 % 0.0 mm 0 W/m2
03:30 11.3 °C 8.7 °C 1025.3 hPa South 4.8 km/h 9.7 km/h 84 % 0.0 mm 0 W/m2
03:35 11.4 °C 8.4 °C 1025.3 hPa South 8.0 km/h 11.3 km/h 82 % 0.0 mm 0 W/m2
03:40 11.6 °C 8.5 °C 1025.3 hPa SE 4.8 km/h 12.9 km/h 81 % 0.0 mm 0 W/m2
03:50 11.7 °C 8.5 °C 1024.9 hPa South 4.8 km/h 12.9 km/h 81 % 0.0 mm 0 W/m2
03:55 11.7 °C 8.4 °C 1024.9 hPa SSE 6.4 km/h 11.3 km/h 80 % 0.0 mm 0 W/m2
04:00 11.8 °C 8.3 °C 1024.9 hPa South 8.0 km/h 11.3 km/h 79 % 0.0 mm 0 W/m2
04:05 11.9 °C 8.0 °C 1024.9 hPa South 6.4 km/h 11.3 km/h 77 % 0.0 mm 0 W/m2
04:10 12.1 °C 8.1 °C 1024.9 hPa SSE 8.0 km/h 12.9 km/h 77 % 0.0 mm 0 W/m2
04:15 12.0 °C 8.1 °C 1024.9 hPa SSE 6.4 km/h 12.9 km/h 77 % 0.0 mm 0 W/m2
04:20 12.1 °C 8.0 °C 1024.9 hPa South 4.8 km/h 11.3 km/h 76 % 0.0 mm 0 W/m2
04:25 12.0 °C 7.9 °C 1024.9 hPa SSE 8.0 km/h 11.3 km/h 76 % 0.0 mm 0 W/m2
04:30 11.9 °C 8.0 °C 1024.9 hPa South 6.4 km/h 11.3 km/h 77 % 0.0 mm 0 W/m2
04:35 11.9 °C 8.0 °C 1024.9 hPa SSE 8.0 km/h 11.3 km/h 77 % 0.0 mm 0 W/m2
04:40 11.9 °C 8.0 °C 1024.9 hPa SSE 1.6 km/h 11.3 km/h 77 % 0.0 mm 0 W/m2
04:45 11.8 °C 7.9 °C 1024.9 hPa South 6.4 km/h 9.7 km/h 77 % 0.0 mm 0 W/m2
04:50 11.8 °C 7.9 °C 1024.9 hPa South 4.8 km/h 11.3 km/h 77 % 0.0 mm 0 W/m2
04:55 11.8 °C 8.1 °C 1024.9 hPa SSE 4.8 km/h 11.3 km/h 78 % 0.0 mm 0 W/m2
05:00 11.8 °C 8.1 °C 1024.9 hPa SE 6.4 km/h 9.7 km/h 78 % 0.0 mm 0 W/m2
05:05 11.8 °C 7.9 °C 1024.9 hPa SSE 6.4 km/h 9.7 km/h 77 % 0.0 mm 0 W/m2
05:10 11.9 °C 8.0 °C 1024.9 hPa SSE 4.8 km/h 9.7 km/h 77 % 0.0 mm 0 W/m2
05:15 11.9 °C 7.8 °C 1024.9 hPa SE 9.7 km/h 9.7 km/h 76 % 0.0 mm 0 W/m2
05:20 11.9 °C 7.8 °C 1024.9 hPa SSE 6.4 km/h 12.9 km/h 76 % 0.0 mm 0 W/m2
05:25 11.9 °C 7.8 °C 1024.9 hPa South 1.6 km/h 12.9 km/h 76 % 0.0 mm 0 W/m2
05:30 11.9 °C 8.0 °C 1024.9 hPa SSE 1.6 km/h 9.7 km/h 77 % 0.0 mm 0 W/m2
05:40 11.8 °C 7.7 °C 1024.9 hPa SE 6.4 km/h 9.7 km/h 76 % 0.0 mm 0 W/m2
05:45 11.7 °C 7.8 °C 1024.9 hPa SSE 4.8 km/h 11.3 km/h 77 % 0.0 mm 0 W/m2
05:50 11.7 °C 7.8 °C 1024.9 hPa SE 1.6 km/h 11.3 km/h 77 % 0.0 mm 0 W/m2
05:55 11.6 °C 7.8 °C 1024.9 hPa Calm   11.3 km/h 78 % 0.0 mm 0 W/m2
06:00 11.4 °C 7.7 °C 1024.9 hPa SE 6.4 km/h 11.3 km/h 78 % 0.0 mm 0 W/m2
06:05 11.4 °C 7.7 °C 1024.9 hPa Calm   11.3 km/h 78 % 0.0 mm 0 W/m2
06:10 11.4 °C 7.7 °C 1024.9 hPa SSE 3.2 km/h 14.5 km/h 78 % 0.0 mm 0 W/m2
06:15 11.3 °C 7.6 °C 1024.6 hPa SE 1.6 km/h 14.5 km/h 78 % 0.0 mm 0 W/m2
06:20 11.2 °C 7.7 °C 1024.9 hPa SSE 6.4 km/h 11.3 km/h 79 % 0.0 mm 0 W/m2
06:25 11.1 °C 7.4 °C 1024.9 hPa SSE 1.6 km/h 11.3 km/h 78 % 0.0 mm 0 W/m2
06:30 10.9 °C 7.3 °C 1024.9 hPa SSE 1.6 km/h 8.0 km/h 78 % 0.0 mm 0 W/m2
06:35 10.8 °C 7.3 °C 1024.9 hPa South 6.4 km/h 11.3 km/h 79 % 0.0 mm 0 W/m2
06:40 10.8 °C 7.3 °C 1024.9 hPa SSE 4.8 km/h 12.9 km/h 79 % 0.0 mm 0 W/m2
06:45 10.8 °C 7.3 °C 1024.9 hPa SSE 3.2 km/h 12.9 km/h 79 % 0.0 mm 0 W/m2
06:50 10.7 °C 7.2 °C 1024.9 hPa South 6.4 km/h 9.7 km/h 79 % 0.0 mm 0 W/m2
06:55 10.6 °C 7.2 °C 1024.9 hPa SE 4.8 km/h 9.7 km/h 80 % 0.0 mm 0 W/m2
07:00 10.4 °C 7.1 °C 1024.9 hPa SSE 4.8 km/h 9.7 km/h 80 % 0.0 mm 0 W/m2
07:05 10.6 °C 7.2 °C 1024.9 hPa SSE 6.4 km/h 11.3 km/h 80 % 0.0 mm 0 W/m2
07:10 10.7 °C 7.4 °C 1024.9 hPa SSE 6.4 km/h 11.3 km/h 80 % 0.0 mm 0 W/m2
07:15 10.8 °C 7.3 °C 1024.9 hPa South 6.4 km/h 11.3 km/h 79 % 0.0 mm 0 W/m2
07:20 10.9 °C 7.3 °C 1024.9 hPa SE 4.8 km/h 11.3 km/h 78 % 0.0 mm 0 W/m2
07:25 11.1 °C 7.2 °C 1025.3 hPa South 8.0 km/h 11.3 km/h 77 % 0.0 mm 0 W/m2
07:30 11.1 °C 7.2 °C 1025.3 hPa SSE 4.8 km/h 12.9 km/h 77 % 0.0 mm 0 W/m2
07:35 11.2 °C 7.1 °C 1025.3 hPa SE 6.4 km/h 12.9 km/h 76 % 0.0 mm 0 W/m2
07:40 11.3 °C 7.2 °C 1025.3 hPa South 11.3 km/h 12.9 km/h 76 % 0.0 mm 0 W/m2
07:45 11.4 °C 7.3 °C 1025.3 hPa SSE 8.0 km/h 14.5 km/h 76 % 0.0 mm 0 W/m2
07:50 11.4 °C 7.3 °C 1025.3 hPa SSE 8.0 km/h 14.5 km/h 76 % 0.0 mm 0 W/m2
07:55 11.4 °C 7.2 °C 1025.3 hPa SSE 3.2 km/h 11.3 km/h 75 % 0.0 mm 0 W/m2
08:00 11.5 °C 7.2 °C 1025.3 hPa SSE 8.0 km/h 12.9 km/h 75 % 0.0 mm 5 W/m2
08:05 11.6 °C 7.3 °C 1025.3 hPa SSE 4.8 km/h 12.9 km/h 75 % 0.0 mm 9 W/m2
08:10 11.5 °C 7.4 °C 1025.3 hPa SE 1.6 km/h 12.9 km/h 76 % 0.0 mm 14 W/m2
08:15 11.6 °C 7.5 °C 1025.3 hPa SSE 9.7 km/h 14.5 km/h 76 % 0.0 mm 16 W/m2
08:20 11.7 °C 7.6 °C 1025.3 hPa South 3.2 km/h 14.5 km/h 76 % 0.0 mm 23 W/m2
08:25 11.7 °C 7.4 °C 1025.3 hPa South 8.0 km/h 14.5 km/h 75 % 0.0 mm 26 W/m2
08:30 11.9 °C 7.4 °C 1025.6 hPa SSE 9.7 km/h 14.5 km/h 74 % 0.0 mm 33 W/m2
08:35 12.1 °C 7.4 °C 1025.6 hPa SSE 4.8 km/h 16.1 km/h 73 % 0.0 mm 42 W/m2
08:40 12.3 °C 7.4 °C 1025.6 hPa SSW 3.2 km/h 16.1 km/h 72 % 0.0 mm 39 W/m2
08:45 12.4 °C 7.5 °C 1025.6 hPa SSE 3.2 km/h 12.9 km/h 72 % 0.0 mm 44 W/m2
08:50 12.6 °C 7.4 °C 1025.6 hPa South 6.4 km/h 14.5 km/h 71 % 0.0 mm 51 W/m2
08:55 12.7 °C 7.5 °C 1025.6 hPa SSW 4.8 km/h 14.5 km/h 71 % 0.0 mm 70 W/m2
09:00 12.8 °C 7.4 °C 1025.6 hPa South 4.8 km/h 14.5 km/h 70 % 0.0 mm 76 W/m2
09:05 12.8 °C 7.5 °C 1025.6 hPa SE 4.8 km/h 14.5 km/h 70 % 0.0 mm 90 W/m2
09:10 12.8 °C 7.7 °C 1025.6 hPa SSE 6.4 km/h 11.3 km/h 71 % 0.0 mm 86 W/m2
09:15 12.8 °C 7.6 °C 1025.6 hPa South 3.2 km/h 12.9 km/h 71 % 0.0 mm 90 W/m2
09:20 12.7 °C 7.7 °C 1025.6 hPa South 6.4 km/h 12.9 km/h 72 % 0.0 mm 151 W/m2
09:25 12.8 °C 7.7 °C 1025.6 hPa South 4.8 km/h 14.5 km/h 71 % 0.0 mm 162 W/m2
09:30 12.9 °C 7.5 °C 1025.6 hPa South 11.3 km/h 17.7 km/h 70 % 0.0 mm 107 W/m2
09:35 13.0 °C 7.4 °C 1025.6 hPa SSE 9.7 km/h 19.3 km/h 69 % 0.0 mm 258 W/m2
09:40 13.2 °C 7.7 °C 1026.0 hPa SSE 6.4 km/h 19.3 km/h 69 % 0.0 mm 251 W/m2
09:45 13.5 °C 7.9 °C 1026.0 hPa SSW 11.3 km/h 17.7 km/h 69 % 0.0 mm 258 W/m2
09:50 13.7 °C 7.9 °C 1026.0 hPa SSW 12.9 km/h 17.7 km/h 68 % 0.0 mm 127 W/m2
09:55 13.8 °C 7.8 °C 1025.6 hPa South 9.7 km/h 17.7 km/h 67 % 0.0 mm 123 W/m2
10:00 13.9 °C 7.7 °C 1026.0 hPa South 6.4 km/h 20.9 km/h 66 % 0.0 mm 214 W/m2
10:05 14.1 °C 8.0 °C 1026.0 hPa South 19.3 km/h 25.7 km/h 67 % 0.0 mm 211 W/m2
10:10 14.2 °C 7.9 °C 1026.0 hPa South 9.7 km/h 25.7 km/h 66 % 0.0 mm 318 W/m2
10:15 14.3 °C 8.3 °C 1026.0 hPa SSE 12.9 km/h 20.9 km/h 67 % 0.0 mm 362 W/m2
10:20 14.6 °C 8.5 °C 1026.0 hPa SSE 8.0 km/h 19.3 km/h 67 % 0.0 mm 325 W/m2
10:25 14.7 °C 8.9 °C 1026.0 hPa South 6.4 km/h 22.5 km/h 68 % 0.0 mm 439 W/m2
10:30 15.2 °C 9.1 °C 1025.6 hPa SSE 14.5 km/h 22.5 km/h 67 % 0.0 mm 429 W/m2
10:35 15.4 °C 9.3 °C 1026.0 hPa SSE 9.7 km/h 16.1 km/h 67 % 0.0 mm 439 W/m2
10:40 15.4 °C 9.1 °C 1026.0 hPa SSE 11.3 km/h 19.3 km/h 66 % 0.0 mm 452 W/m2
10:45 15.6 °C 9.7 °C 1026.0 hPa South 9.7 km/h 19.3 km/h 68 % 0.0 mm 387 W/m2
10:50 15.7 °C 9.8 °C 1025.6 hPa South 16.1 km/h 17.7 km/h 68 % 0.0 mm 322 W/m2
10:55 15.8 °C 9.7 °C 1025.6 hPa SSW 14.5 km/h 19.3 km/h 67 % 0.0 mm 385 W/m2
11:00 15.9 °C 9.6 °C 1025.6 hPa SSW 8.0 km/h 19.3 km/h 66 % 0.0 mm 420 W/m2
11:05 15.9 °C 9.6 °C 1026.0 hPa SSE 8.0 km/h 17.7 km/h 66 % 0.0 mm 411 W/m2
11:10 16.0 °C 9.9 °C 1025.6 hPa SSW 4.8 km/h 17.7 km/h 67 % 0.0 mm 366 W/m2
11:15 16.1 °C 10.2 °C 1026.0 hPa South 8.0 km/h 17.7 km/h 68 % 0.0 mm 388 W/m2
11:20 16.1 °C 9.9 °C 1026.0 hPa SSW 9.7 km/h 17.7 km/h 67 % 0.0 mm 443 W/m2
11:25 16.2 °C 10.1 °C 1026.0 hPa South 12.9 km/h 17.7 km/h 67 % 0.0 mm 441 W/m2
11:30 16.4 °C 10.0 °C 1026.0 hPa SSW 6.4 km/h 16.1 km/h 66 % 0.0 mm 462 W/m2
11:35 16.4 °C 10.1 °C 1026.0 hPa South 6.4 km/h 16.1 km/h 66 % 0.0 mm 497 W/m2
11:40 16.6 °C 9.9 °C 1026.0 hPa South 14.5 km/h 17.7 km/h 65 % 0.0 mm 517 W/m2
11:45 16.7 °C 10.3 °C 1026.0 hPa South 17.7 km/h 17.7 km/h 66 % 0.0 mm 501 W/m2
11:50 16.8 °C 10.4 °C 1026.0 hPa South 12.9 km/h 17.7 km/h 66 % 0.0 mm 550 W/m2
11:55 17.0 °C 10.4 °C 1026.0 hPa South 6.4 km/h 17.7 km/h 65 % 0.0 mm 589 W/m2
12:00 17.1 °C 10.5 °C 1026.0 hPa South 9.7 km/h 17.7 km/h 65 % 0.0 mm 592 W/m2
12:05 17.1 °C 10.4 °C 1026.0 hPa SSW 11.3 km/h 17.7 km/h 65 % 0.0 mm 615 W/m2
12:10 17.2 °C 10.8 °C 1025.6 hPa SW 11.3 km/h 19.3 km/h 66 % 0.0 mm 598 W/m2
12:15 17.7 °C 10.8 °C 1025.6 hPa SSW 11.3 km/h 19.3 km/h 64 % 0.0 mm 613 W/m2
12:20 18.1 °C 11.1 °C 1025.6 hPa SSW 12.9 km/h 19.3 km/h 64 % 0.0 mm 650 W/m2
12:25 18.2 °C 10.8 °C 1025.6 hPa SSW 11.3 km/h 20.9 km/h 62 % 0.0 mm 673 W/m2
12:30 18.3 °C 10.4 °C 1025.6 hPa SSW 9.7 km/h 24.1 km/h 60 % 0.0 mm 663 W/m2
12:40 18.7 °C 10.5 °C 1025.6 hPa South 17.7 km/h 20.9 km/h 59 % 0.0 mm 652 W/m2
12:45 18.7 °C 10.5 °C 1025.3 hPa South 11.3 km/h 20.9 km/h 59 % 0.0 mm 680 W/m2
12:50 18.8 °C 10.1 °C 1025.3 hPa SW 11.3 km/h 25.7 km/h 57 % 0.0 mm 666 W/m2
12:55 18.7 °C 9.8 °C 1025.3 hPa SSW 20.9 km/h 27.4 km/h 56 % 0.0 mm 657 W/m2
13:00 18.7 °C 9.4 °C 1025.3 hPa South 8.0 km/h 29.0 km/h 55 % 0.0 mm 599 W/m2
13:05 18.8 °C 10.1 °C 1025.3 hPa South 9.7 km/h 29.0 km/h 57 % 0.0 mm 520 W/m2
13:10 18.8 °C 9.9 °C 1025.6 hPa SSE 14.5 km/h 29.0 km/h 56 % 0.0 mm 599 W/m2
13:15 18.8 °C 10.1 °C 1025.6 hPa South 11.3 km/h 29.0 km/h 57 % 0.0 mm 647 W/m2
13:20 18.8 °C 9.9 °C 1025.3 hPa SSW 16.1 km/h 25.7 km/h 56 % 0.0 mm 650 W/m2
13:25 18.8 °C 9.6 °C 1025.3 hPa SSW 20.9 km/h 27.4 km/h 55 % 0.0 mm 661 W/m2
13:30 18.8 °C 10.1 °C 1025.3 hPa SSE 22.5 km/h 27.4 km/h 57 % 0.0 mm 515 W/m2
13:35 18.9 °C 9.6 °C 1025.3 hPa SSW 16.1 km/h 25.7 km/h 55 % 0.0 mm 677 W/m2
13:40 19.3 °C 10.5 °C 1025.3 hPa SW 8.0 km/h 25.7 km/h 57 % 0.0 mm 789 W/m2
13:45 19.6 °C 11.6 °C 1025.6 hPa WSW 6.4 km/h 20.9 km/h 60 % 0.0 mm 744 W/m2
13:50 18.8 °C 11.6 °C 1025.6 hPa WSW 6.4 km/h 22.5 km/h 63 % 0.0 mm 751 W/m2
13:55 18.7 °C 11.7 °C 1025.6 hPa WSW 9.7 km/h 22.5 km/h 64 % 0.0 mm 724 W/m2
14:00 18.7 °C 12.2 °C 1025.6 hPa West 3.2 km/h 19.3 km/h 66 % 0.0 mm 668 W/m2
14:05 18.6 °C 12.1 °C 1025.6 hPa SW 8.0 km/h 17.7 km/h 66 % 0.0 mm 603 W/m2
14:10 18.2 °C 11.7 °C 1025.3 hPa West 9.7 km/h 14.5 km/h 66 % 0.0 mm 629 W/m2
14:15 18.1 °C 11.4 °C 1025.3 hPa West 8.0 km/h 14.5 km/h 65 % 0.0 mm 561 W/m2
14:20 17.8 °C 10.9 °C 1025.3 hPa SSW 3.2 km/h 16.1 km/h 64 % 0.0 mm 548 W/m2
14:25 17.7 °C 11.5 °C 1025.3 hPa West 4.8 km/h 16.1 km/h 67 % 0.0 mm 519 W/m2
14:30 17.9 °C 11.2 °C 1025.3 hPa SSW 11.3 km/h 20.9 km/h 65 % 0.0 mm 476 W/m2
14:35 17.8 °C 11.2 °C 1025.3 hPa SSW 9.7 km/h 20.9 km/h 65 % 0.0 mm 526 W/m2
14:40 17.7 °C 11.0 °C 1025.3 hPa South 4.8 km/h 14.5 km/h 65 % 0.0 mm 570 W/m2
14:45 17.8 °C 11.2 °C 1025.3 hPa SSW 8.0 km/h 12.9 km/h 65 % 0.0 mm 598 W/m2
14:50 17.9 °C 11.0 °C 1025.3 hPa SSW 6.4 km/h 17.7 km/h 64 % 0.0 mm 450 W/m2
14:55 17.9 °C 10.7 °C 1025.3 hPa SW 9.7 km/h 19.3 km/h 63 % 0.0 mm 670 W/m2
15:00 18.2 °C 11.5 °C 1024.9 hPa WSW 9.7 km/h 19.3 km/h 65 % 0.0 mm 573 W/m2
15:05 18.1 °C 10.9 °C 1024.9 hPa WNW 4.8 km/h 14.5 km/h 63 % 0.0 mm 652 W/m2
15:10 18.1 °C 10.7 °C 1024.9 hPa WSW 12.9 km/h 12.9 km/h 62 % 0.0 mm 624 W/m2
15:15 18.3 °C 10.6 °C 1024.9 hPa SSW 6.4 km/h 16.1 km/h 61 % 0.0 mm 580 W/m2
15:20 18.3 °C 10.9 °C 1024.9 hPa SW 4.8 km/h 16.1 km/h 62 % 0.0 mm 557 W/m2
15:25 18.2 °C 11.1 °C 1024.9 hPa SSW 11.3 km/h 16.1 km/h 63 % 0.0 mm 635 W/m2
15:30 18.5 °C 11.1 °C 1024.9 hPa SW 4.8 km/h 16.1 km/h 62 % 0.0 mm 679 W/m2
15:35 18.7 °C 11.8 °C 1024.9 hPa WSW 4.8 km/h 16.1 km/h 64 % 0.0 mm 693 W/m2
15:40 18.7 °C 10.3 °C 1024.9 hPa WSW 8.0 km/h 17.7 km/h 58 % 0.0 mm 675 W/m2
15:45 18.8 °C 10.3 °C 1024.6 hPa SE 4.8 km/h 17.7 km/h 58 % 0.0 mm 677 W/m2
15:55 18.9 °C 9.4 °C 1024.6 hPa SSW 8.0 km/h 20.9 km/h 54 % 0.0 mm 670 W/m2
16:00 18.7 °C 9.2 °C 1024.6 hPa SSW 8.0 km/h 19.3 km/h 54 % 0.0 mm 657 W/m2
16:05 18.8 °C 8.8 °C 1024.6 hPa SSW 12.9 km/h 19.3 km/h 52 % 0.0 mm 624 W/m2
16:10 18.8 °C 9.0 °C 1024.6 hPa South 12.9 km/h 19.3 km/h 53 % 0.0 mm 643 W/m2
16:15 18.9 °C 9.6 °C 1024.6 hPa SSW 9.7 km/h 20.9 km/h 55 % 0.0 mm 619 W/m2
16:20 19.2 °C 8.8 °C 1024.3 hPa South 12.9 km/h 20.9 km/h 51 % 0.0 mm 624 W/m2
16:25 19.1 °C 8.7 °C 1024.3 hPa SSW 9.7 km/h 25.7 km/h 51 % 0.0 mm 624 W/m2
16:30 19.0 °C 8.6 °C 1024.3 hPa SSW 9.7 km/h 25.7 km/h 51 % 0.0 mm 585 W/m2
16:35 19.1 °C 9.0 °C 1024.3 hPa South 4.8 km/h 22.5 km/h 52 % 0.0 mm 554 W/m2
16:40 19.2 °C 9.1 °C 1024.3 hPa SSW 4.8 km/h 22.5 km/h 52 % 0.0 mm 573 W/m2
16:45 19.4 °C 10.1 °C 1024.3 hPa SSE 4.8 km/h 22.5 km/h 55 % 0.0 mm 531 W/m2
16:50 19.3 °C 8.9 °C 1023.9 hPa South 8.0 km/h 19.3 km/h 51 % 0.0 mm 543 W/m2
16:55 19.3 °C 8.3 °C 1023.9 hPa West 12.9 km/h 20.9 km/h 49 % 0.0 mm 508 W/m2
17:00 19.1 °C 8.7 °C 1023.9 hPa SSE 9.7 km/h 20.9 km/h 51 % 0.0 mm 513 W/m2
17:05 19.2 °C 8.8 °C 1023.9 hPa SW 8.0 km/h 20.9 km/h 51 % 0.0 mm 480 W/m2
17:10 19.2 °C 8.8 °C 1023.9 hPa WSW 8.0 km/h 20.9 km/h 51 % 0.0 mm 510 W/m2
17:15 19.1 °C 8.7 °C 1023.9 hPa South 17.7 km/h 19.3 km/h 51 % 0.0 mm 501 W/m2
17:20 19.1 °C 8.7 °C 1023.6 hPa SSW 17.7 km/h 19.3 km/h 51 % 0.0 mm 229 W/m2
17:25 18.8 °C 8.8 °C 1023.6 hPa South 6.4 km/h 24.1 km/h 52 % 0.0 mm 452 W/m2
17:30 18.8 °C 8.8 °C 1023.6 hPa SW 14.5 km/h 24.1 km/h 52 % 0.0 mm 218 W/m2
17:35 18.7 °C 8.9 °C 1023.6 hPa SSW 11.3 km/h 24.1 km/h 53 % 0.0 mm 274 W/m2
17:40 18.8 °C 9.3 °C 1023.6 hPa South 4.8 km/h 19.3 km/h 54 % 0.0 mm 163 W/m2
17:45 18.8 °C 9.0 °C 1023.6 hPa South 6.4 km/h 19.3 km/h 53 % 0.0 mm 149 W/m2
17:50 18.9 °C 9.1 °C 1023.6 hPa SSW 19.3 km/h 20.9 km/h 53 % 0.0 mm 229 W/m2
17:55 18.8 °C 8.4 °C 1023.6 hPa South 4.8 km/h 20.9 km/h 51 % 0.0 mm 209 W/m2
18:00 18.7 °C 8.4 °C 1023.6 hPa South 9.7 km/h 25.7 km/h 51 % 0.0 mm 176 W/m2
18:05 18.7 °C 8.3 °C 1023.6 hPa South 8.0 km/h 25.7 km/h 51 % 0.0 mm 193 W/m2
18:10 18.7 °C 8.7 °C 1023.6 hPa South 8.0 km/h 20.9 km/h 52 % 0.0 mm 179 W/m2
18:15 18.8 °C 9.0 °C 1023.2 hPa South 11.3 km/h 16.1 km/h 53 % 0.0 mm 185 W/m2
18:20 18.7 °C 8.6 °C 1023.2 hPa South 9.7 km/h 14.5 km/h 52 % 0.0 mm 120 W/m2
18:25 18.6 °C 9.1 °C 1023.6 hPa South 8.0 km/h 14.5 km/h 54 % 0.0 mm 162 W/m2
18:30 18.7 °C 9.2 °C 1023.2 hPa South 9.7 km/h 17.7 km/h 54 % 0.0 mm 250 W/m2
18:35 18.6 °C 9.1 °C 1023.2 hPa SSW 9.7 km/h 17.7 km/h 54 % 0.0 mm 209 W/m2
18:40 18.4 °C 9.2 °C 1023.2 hPa South 6.4 km/h 20.9 km/h 55 % 0.0 mm 149 W/m2
18:45 18.3 °C 9.4 °C 1023.2 hPa South 6.4 km/h 20.9 km/h 56 % 0.0 mm 165 W/m2
18:50 18.3 °C 9.4 °C 1023.6 hPa SW 9.7 km/h 16.1 km/h 56 % 0.0 mm 132 W/m2
18:55 18.3 °C 9.9 °C 1023.6 hPa SSW 11.3 km/h 16.1 km/h 58 % 0.0 mm 113 W/m2
19:00 18.2 °C 9.8 °C 1023.6 hPa SW 9.7 km/h 12.9 km/h 58 % 0.0 mm 104 W/m2
19:05 18.0 °C 9.6 °C 1023.6 hPa SW 1.6 km/h 12.9 km/h 58 % 0.0 mm 130 W/m2
19:10 17.9 °C 10.0 °C 1023.6 hPa SW 3.2 km/h 11.3 km/h 60 % 0.0 mm 102 W/m2
19:15 17.8 °C 10.2 °C 1023.6 hPa SSW 3.2 km/h 11.3 km/h 61 % 0.0 mm 95 W/m2
19:20 17.6 °C 10.0 °C 1023.6 hPa South 4.8 km/h 12.9 km/h 61 % 0.0 mm 84 W/m2
19:25 17.4 °C 10.0 °C 1023.6 hPa SW 3.2 km/h 12.9 km/h 62 % 0.0 mm 77 W/m2
19:30 17.3 °C 10.2 °C 1023.6 hPa South 6.4 km/h 12.9 km/h 63 % 0.0 mm 67 W/m2
19:35 17.1 °C 10.2 °C 1023.6 hPa SSW 3.2 km/h 12.9 km/h 64 % 0.0 mm 58 W/m2
19:40 16.9 °C 10.0 °C 1023.6 hPa South 6.4 km/h 11.3 km/h 64 % 0.0 mm 49 W/m2
19:45 16.7 °C 10.1 °C 1023.6 hPa SW 4.8 km/h 11.3 km/h 65 % 0.0 mm 46 W/m2
19:50 16.6 °C 9.9 °C 1023.6 hPa SW 4.8 km/h 8.0 km/h 65 % 0.0 mm 40 W/m2
19:55 16.4 °C 10.0 °C 1023.6 hPa SSW 6.4 km/h 11.3 km/h 66 % 0.0 mm 37 W/m2
20:00 16.2 °C 9.8 °C 1023.6 hPa WSW 4.8 km/h 11.3 km/h 66 % 0.0 mm 32 W/m2
20:05 15.8 °C 9.9 °C 1023.6 hPa WSW 1.6 km/h 9.7 km/h 68 % 0.0 mm 25 W/m2
20:10 15.7 °C 9.6 °C 1023.6 hPa WSW 1.6 km/h 9.7 km/h 67 % 0.0 mm 21 W/m2
20:15 15.5 °C 9.4 °C 1023.6 hPa SSW 3.2 km/h 6.4 km/h 67 % 0.0 mm 16 W/m2
20:20 15.3 °C 9.5 °C 1023.6 hPa Calm   6.4 km/h 68 % 0.0 mm 12 W/m2
20:25 15.1 °C 9.4 °C 1023.6 hPa Calm   8.0 km/h 69 % 0.0 mm 9 W/m2
20:30 14.9 °C 9.5 °C 1023.6 hPa Calm   8.0 km/h 70 % 0.0 mm 7 W/m2
20:35 14.5 °C 9.3 °C 1023.6 hPa SSW 3.2 km/h 6.4 km/h 71 % 0.0 mm 0 W/m2
20:40 14.3 °C 9.3 °C 1023.6 hPa SSW 3.2 km/h 6.4 km/h 72 % 0.0 mm 0 W/m2
20:45 14.1 °C 9.1 °C 1023.6 hPa Calm   4.8 km/h 72 % 0.0 mm 0 W/m2
20:50 13.3 °C 8.9 °C 1023.9 hPa Calm   4.8 km/h 75 % 0.0 mm 0 W/m2
20:55 12.9 °C 9.0 °C 1023.9 hPa Calm   1.6 km/h 77 % 0.0 mm 0 W/m2
21:00 13.3 °C 9.5 °C 1023.6 hPa SSW 3.2 km/h 4.8 km/h 78 % 0.0 mm 0 W/m2
21:05 13.3 °C 9.4 °C 1023.9 hPa SSW 3.2 km/h 4.8 km/h 77 % 0.0 mm 0 W/m2
21:10 13.1 °C 9.2 °C 1023.6 hPa South 1.6 km/h 4.8 km/h 77 % 0.0 mm 0 W/m2
21:20 13.3 °C 9.1 °C 1023.9 hPa South 3.2 km/h 6.4 km/h 76 % 0.0 mm 0 W/m2
21:25 12.8 °C 8.8 °C 1023.9 hPa South 3.2 km/h 4.8 km/h 77 % 0.0 mm 0 W/m2
21:30 12.7 °C 8.8 °C 1023.9 hPa South 1.6 km/h 4.8 km/h 77 % 0.0 mm 0 W/m2
21:35 12.8 °C 8.7 °C 1023.9 hPa South 3.2 km/h 4.8 km/h 76 % 0.0 mm 0 W/m2
21:40 12.3 °C 8.6 °C 1023.9 hPa Calm   4.8 km/h 78 % 0.0 mm 0 W/m2
21:45 12.1 °C 8.5 °C 1023.9 hPa Calm   4.8 km/h 79 % 0.0 mm 0 W/m2
21:50 11.8 °C 8.4 °C 1023.9 hPa Calm     80 % 0.0 mm 0 W/m2
21:55 11.6 °C 8.2 °C 1023.9 hPa Calm     80 % 0.0 mm 0 W/m2
22:00 11.2 °C 8.0 °C 1024.3 hPa Calm     81 % 0.0 mm 0 W/m2
22:05 10.8 °C 8.1 °C 1024.3 hPa Calm     83 % 0.0 mm 0 W/m2
22:10 10.4 °C 7.8 °C 1024.3 hPa NW 1.6 km/h 6.4 km/h 84 % 0.0 mm 0 W/m2
22:15 10.4 °C 8.2 °C 1024.3 hPa Calm   6.4 km/h 86 % 0.0 mm 0 W/m2
22:20 10.3 °C 8.1 °C 1024.3 hPa Calm   3.2 km/h 86 % 0.0 mm 0 W/m2
22:25 10.3 °C 8.1 °C 1024.3 hPa Calm   1.6 km/h 86 % 0.0 mm 0 W/m2
22:30 10.2 °C 8.1 °C 1024.3 hPa Calm     87 % 0.0 mm 0 W/m2
22:35 10.2 °C 8.3 °C 1024.3 hPa Calm     88 % 0.0 mm 0 W/m2
22:40 10.2 °C 8.3 °C 1024.3 hPa Calm     88 % 0.0 mm 0 W/m2
22:45 9.9 °C 8.0 °C 1024.3 hPa Calm     88 % 0.0 mm 0 W/m2
22:50 9.8 °C 8.1 °C 1024.3 hPa Calm     89 % 0.0 mm 0 W/m2
22:55 9.8 °C 8.3 °C 1024.3 hPa Calm     90 % 0.0 mm 0 W/m2
23:05 9.4 °C 7.9 °C 1024.3 hPa Calm   1.6 km/h 90 % 0.0 mm 0 W/m2
23:10 9.4 °C 8.0 °C 1024.3 hPa Calm     91 % 0.0 mm 0 W/m2
23:15 9.3 °C 7.8 °C 1024.3 hPa Calm     90 % 0.0 mm 0 W/m2
23:20 9.2 °C 7.8 °C 1024.3 hPa Calm     91 % 0.0 mm 0 W/m2
23:25 9.5 °C 8.3 °C 1024.3 hPa Calm   1.6 km/h 92 % 0.0 mm 0 W/m2
23:30 9.7 °C 8.2 °C 1024.3 hPa Calm   3.2 km/h 90 % 0.0 mm 0 W/m2
23:35 9.7 °C 8.3 °C 1024.3 hPa Calm   3.2 km/h 91 % 0.0 mm 0 W/m2
23:40 9.4 °C 7.8 °C 1024.3 hPa Calm     90 % 0.0 mm 0 W/m2
23:45 9.1 °C 7.7 °C 1024.3 hPa Calm     91 % 0.0 mm 0 W/m2
23:50 9.0 °C 7.6 °C 1024.3 hPa Calm     91 % 0.0 mm 0 W/m2
23:55 8.9 °C 7.5 °C 1024.3 hPa Calm     91 % 0.0 mm 0 W/m2
Avec l'autorisation de Weather Underground - 1.75 mb